[[{"header":{"parameterUnit":"m.s-1","parameterCategory":1,"la1":30.2991,"la2":30.254,"lo1":-89.0895,"lo2":-89.0444,"dy":0.0017,"dx":0.0017,"nx":28,"ny":28,"refTime":"2024-08-17T21:00:00:Z","depth":0,"parameterNumber":2,"parameterNumberName":"U-component_of_WINDS"},"data":[0,0,0,0,0,0,0,0,0,0,0,0,0,0,0,0,0,0,0,0,0,0,0,0,0,0,0,0,0,0,0,0,0,0,0,0,0,0,0,0,0,0,0,0,0,0,0,0,0,0,0,0,0,0,0,0,0,0,2.8361,2.8362,0,2.8498,2.8499,2.8501,2.8494,2.8492,2.849,2.8488,2.8636,2.8642,2.8648,0,0,0,0,0,0,0,0,0,0,0,0,0,2.8101,2.8106,2.8361,2.8362,2.8364,2.8498,2.8499,2.8501,2.8494,2.8492,2.849,2.8487,2.8635,2.8641,2.8648,0,0,0,0,0,0,0,0,0,0,0,0,0,2.8224,2.8107,2.836,2.8376,2.8379,2.8497,2.85,2.8502,2.8495,2.8492,2.8489,2.8486,2.8632,2.8641,2.8649,2.8762,0,0,2.8676,2.868,0,0,0,0,0,0,0,0,2.8217,2.8233,2.8372,2.8376,2.8379,2.8476,2.8462,2.859,2.8496,2.8451,2.8488,2.8485,2.8586,2.8598,2.8631,2.8769,2.8776,2.8677,2.8682,2.8686,2.8688,0,0,0,0,0,0,0,2.8208,2.8227,2.8415,2.8374,2.8378,2.838,2.8394,2.8486,2.8534,2.8455,2.8455,2.8471,2.8587,2.8622,2.8634,2.8778,2.8676,2.8684,2.8689,2.8693,2.9018,2.9021,0,0,0,0,0,0,2.8195,2.822,2.8411,2.8419,2.8289,2.8387,2.8402,2.8448,2.8533,2.8543,2.8473,2.847,2.8609,2.8624,2.8639,2.8778,2.8686,2.8694,2.8699,2.9015,2.9019,2.9023,0,0,0,0,0,0,2.8189,2.8212,2.8405,2.832,2.8344,2.8394,2.8445,2.8452,2.8487,2.8546,2.8556,2.85,2.8607,2.8627,2.8732,2.8783,2.8698,2.8706,2.9011,2.9016,2.9021,2.9055,0,0,0,0,0,0,2.8182,2.821,2.8251,2.8321,2.8349,2.8493,2.8448,2.8457,2.8501,2.8498,2.8574,2.8584,2.8606,2.8719,2.874,2.8793,2.8712,2.9006,2.9013,2.9019,2.905,2.9061,2.9071,0,0,0,0,0,2.8173,2.8257,2.8254,2.8277,2.8401,2.8496,2.8512,2.8534,2.8505,2.8549,2.8587,2.8581,2.8774,2.8729,2.8754,2.881,2.9003,2.9011,2.9019,2.9045,2.9059,2.907,0,0,0,0,0,0,2.8195,2.8266,2.8263,2.8372,2.8428,2.8494,2.8549,2.8548,2.8615,2.861,2.8637,2.8654,2.8759,2.8796,2.8745,2.8925,2.8885,2.8898,2.8897,2.8911,2.8921,2.891,2.872,0,0,0,0,0,2.8212,2.828,2.834,2.8431,2.8458,2.8499,2.8541,2.8553,2.8613,2.8637,2.8683,2.8744,2.8818,2.8866,2.8938,2.9055,2.9073,2.9107,2.9117,2.9125,2.9136,2.9202,2.9218,2.9048,2.9048,2.9048,0,0,2.8249,2.8297,2.8338,2.8436,2.8481,2.8553,2.8519,2.8597,2.8652,2.865,2.8751,2.8787,2.8857,2.8968,2.902,2.9001,2.9187,2.9135,2.9141,2.9148,2.9211,2.9227,2.9242,2.9053,2.9052,2.9051,0,0,2.8353,2.8395,2.8475,2.852,2.8587,2.8614,2.8634,2.8701,2.8724,2.8825,2.8826,2.8893,2.902,2.9069,2.9111,2.9236,2.9233,2.9259,2.9313,2.9377,2.939,2.9402,2.9447,2.9463,2.927,2.927,2.927,0,2.8391,2.8497,2.8517,2.8596,2.8639,2.8639,2.8722,2.8766,2.8854,2.8886,2.8864,2.9023,2.907,2.9194,2.9224,2.9258,2.9282,2.925,2.9386,2.9398,2.941,2.9453,2.947,2.9272,2.9272,2.9272,2.9271,0,2.8541,2.8615,2.8673,2.8755,2.8806,2.8886,2.8921,2.897,2.8979,2.9009,2.9113,2.9169,2.9252,2.9283,2.9293,2.9409,2.9395,2.938,2.934,2.9428,2.9469,2.9486,2.9276,2.9275,2.9274,2.9274,0,0,2.8662,2.8754,2.8775,2.8813,2.8888,2.8947,2.9029,2.9107,2.915,2.9212,2.9282,2.939,2.9375,2.9423,2.9439,2.9495,2.9591,2.9473,2.9475,2.9493,2.9723,2.9734,2.9753,2.959,2.9593,2.9596,2.9717,0,2.8773,2.8914,2.8936,2.9061,2.9131,2.9133,2.9204,2.926,2.929,2.9356,2.9392,2.9467,2.9443,2.9472,2.9527,2.9567,2.9638,2.9559,2.9658,2.9661,2.9639,2.9774,2.9786,2.9897,2.9734,2.9736,2.9738,0,2.8922,2.8985,2.9116,2.9182,2.9213,2.9276,2.9351,2.9413,2.9477,2.9496,2.9549,2.9558,2.9646,2.9603,2.9725,2.9671,2.9713,2.9739,2.9744,2.9754,2.9704,2.9788,2.9934,2.995,2.9764,2.9762,2.976,0,2.8996,2.9115,2.9209,2.9241,2.9321,2.9365,2.9401,2.9462,2.9508,2.9575,2.9606,2.9683,2.9725,2.9786,2.9817,2.9782,2.9937,2.9897,2.9957,2.9956,2.9988,2.9986,3.0143,3.0016,3.0016,3.0016,3.0015,0,2.9118,2.9199,2.9243,2.9301,2.9393,2.9418,2.9509,2.9544,2.9598,2.9665,2.9673,2.9736,2.9773,2.9842,2.9868,2.9965,2.9985,3.0004,3.0009,3.0003,3.0,3.003,3.0023,3.002,3.0019,3.0018,3.0018,0,2.9216,2.9249,2.9352,2.9419,2.9437,2.9502,2.956,2.9618,2.9649,2.9734,2.9755,2.9805,2.9887,2.9924,3.0026,3.0043,3.0155,3.0155,3.0132,3.0134,3.0192,3.0186,3.0373,3.0399,3.0256,3.0257,3.0258,0,2.9291,2.9353,2.9426,2.947,2.9506,2.9578,2.9625,2.9653,2.9703,2.9781,2.983,2.9911,2.9978,3.011,3.0157,3.0236,3.0238,3.0298,3.025,3.0241,3.0239,3.0234,3.0241,3.0307,3.0308,3.0309,3.031,0,2.9421,2.9434,2.95,2.9573,2.9629,2.9688,2.9747,2.9783,2.9821,2.9877,2.996,3.0011,3.0115,3.0197,3.0279,3.0319,3.0322,3.0325,3.0343,3.0337,3.032,3.033,3.0155,3.0321,3.032,3.0319,3.0318,3.0318,2.951,2.9565,2.9625,2.9699,2.9746,2.98,2.9857,2.9895,2.9964,3.0049,3.0063,3.0151,3.0216,3.0326,3.0369,3.044,3.0426,3.0452,3.0459,3.0464,3.0467,3.0309,3.0455,3.0455,3.0455,3.0455,3.0455,0,2.9639,2.9678,2.9746,2.9826,2.9886,2.9882,2.9946,2.9997,3.0074,3.0132,3.0198,3.0294,3.0374,3.0427,3.0508,3.0555,3.0559,3.0576,3.0572,3.0582,3.0476,3.0452,3.0572,3.0571,3.0571,3.0571,3.0571,3.0571,2.9714,2.9807,2.9828,2.9946,2.9985,3.0069,3.0107,3.0158,3.0205,3.0311,3.0377,3.041,3.0468,3.0553,3.0627,3.0641,3.0671,3.0688,3.0701,3.0601,3.0589,3.0577,3.0555,3.0694,3.0695,3.0801,3.0802,3.0803]},{"header":{"parameterUnit":"m.s-1","parameterCategory":1,"la1":30.2991,"la2":30.254,"lo1":-89.0895,"lo2":-89.0444,"dy":0.0017,"dx":0.0017,"nx":28,"ny":28,"refTime":"2024-08-17T21:00:00:Z","depth":0,"parameterNumber":3,"parameterNumberName":"V-component_of_WINDS"},"data":[0,0,0,0,0,0,0,0,0,0,0,0,0,0,0,0,0,0,0,0,0,0,0,0,0,0,0,0,0,0,0,0,0,0,0,0,0,0,0,0,0,0,0,0,0,0,0,0,0,0,0,0,0,0,0,0,0,0,3.6065,3.6066,0,3.6154,3.6155,3.6156,3.6147,3.6146,3.6145,3.6143,3.6228,3.6231,3.6235,0,0,0,0,0,0,0,0,0,0,0,0,0,3.5879,3.5882,3.6065,3.6066,3.6067,3.6154,3.6155,3.6156,3.6148,3.6146,3.6144,3.6143,3.6227,3.6231,3.6235,0,0,0,0,0,0,0,0,0,0,0,0,0,3.5963,3.5883,3.6064,3.6073,3.6075,3.6153,3.6155,3.6156,3.6148,3.6146,3.6144,3.6142,3.6225,3.623,3.6235,3.6309,0,0,3.6252,3.6254,0,0,0,0,0,0,0,0,3.5958,3.5969,3.6071,3.6073,3.6075,3.6138,3.612,3.6207,3.6148,3.612,3.6143,3.6141,3.6199,3.6206,3.6227,3.6313,3.6316,3.6252,3.6255,3.6258,3.6259,0,0,0,0,0,0,0,3.5952,3.5965,3.61,3.6072,3.6075,3.607,3.608,3.6137,3.6169,3.6122,3.6122,3.6133,3.6199,3.6222,3.6229,3.6317,3.6252,3.6257,3.626,3.6262,3.6463,3.6465,0,0,0,0,0,0,3.5945,3.5961,3.6097,3.6102,3.601,3.6075,3.6086,3.6119,3.6169,3.6175,3.6135,3.6132,3.6214,3.6223,3.6232,3.6318,3.6257,3.6262,3.6265,3.6461,3.6463,3.6466,0,0,0,0,0,0,3.5941,3.5957,3.6093,3.6032,3.6048,3.608,3.6118,3.6122,3.6145,3.6178,3.6183,3.6152,3.6213,3.6225,3.6289,3.6321,3.6265,3.627,3.6458,3.6462,3.6465,3.6493,0,0,0,0,0,0,3.5936,3.5956,3.5987,3.6032,3.6052,3.6152,3.612,3.6125,3.6155,3.6152,3.6196,3.6201,3.6212,3.6281,3.6294,3.6327,3.6274,3.6455,3.646,3.6464,3.6489,3.6496,3.6503,0,0,0,0,0,3.5929,3.599,3.5988,3.6005,3.6091,3.6154,3.6164,3.6178,3.6157,3.6186,3.6207,3.62,3.6316,3.6288,3.6303,3.6337,3.6453,3.6459,3.6463,3.6486,3.6495,3.6503,0,0,0,0,0,0,3.5946,3.5996,3.5995,3.6073,3.6109,3.6152,3.6189,3.6187,3.6229,3.6225,3.6237,3.6247,3.6311,3.6331,3.6299,3.6409,3.6381,3.639,3.6394,3.6403,3.6409,3.6402,3.6278,0,0,0,0,0,3.5959,3.6008,3.6049,3.6113,3.6132,3.6158,3.6185,3.6192,3.623,3.6244,3.627,3.6304,3.6348,3.6377,3.6419,3.6492,3.6499,3.6523,3.653,3.6535,3.6541,3.6578,3.6588,3.6482,3.6482,3.6482,0,0,3.5985,3.6019,3.6049,3.6117,3.6146,3.6194,3.6171,3.6223,3.6257,3.6251,3.6314,3.6334,3.6373,3.6441,3.6472,3.6459,3.6572,3.6542,3.6546,3.6549,3.6584,3.6594,3.6603,3.6485,3.6485,3.6484,0,0,3.6057,3.609,3.6146,3.6175,3.622,3.6236,3.6249,3.6293,3.6306,3.637,3.6365,3.6405,3.6481,3.6508,3.6532,3.6612,3.6605,3.6625,3.666,3.6696,3.6704,3.6711,3.6737,3.6746,3.6631,3.6631,3.6631,0,3.6084,3.6159,3.6174,3.6226,3.6255,3.6254,3.6308,3.6335,3.639,3.6408,3.6394,3.6488,3.6514,3.6587,3.6606,3.6626,3.6639,3.6619,3.6702,3.671,3.6717,3.6741,3.6751,3.6633,3.6633,3.6633,3.6633,0,3.6187,3.6239,3.6278,3.6333,3.6366,3.6419,3.6439,3.647,3.6474,3.649,3.6552,3.6584,3.6631,3.6649,3.6653,3.6722,3.6712,3.67,3.6672,3.6728,3.6751,3.6761,3.6636,3.6635,3.6635,3.6634,0,0,3.6273,3.6335,3.6348,3.6372,3.642,3.6458,3.651,3.6558,3.6582,3.662,3.6661,3.6724,3.6712,3.6739,3.6746,3.6777,3.6834,3.676,3.6761,3.677,3.6908,3.6915,3.6926,3.6831,3.6833,3.6834,3.6903,0,3.6348,3.6441,3.6455,3.6536,3.6582,3.658,3.6624,3.6656,3.6673,3.6711,3.6729,3.6772,3.6755,3.6771,3.6802,3.6821,3.6861,3.6816,3.6865,3.6867,3.6854,3.6938,3.6947,3.7011,3.6913,3.6914,3.6915,0,3.6448,3.6489,3.6575,3.6615,3.6634,3.6674,3.6717,3.6755,3.679,3.68,3.6829,3.6831,3.688,3.6852,3.6918,3.6887,3.6908,3.692,3.6922,3.6926,3.6893,3.6941,3.7032,3.704,3.693,3.6929,3.6928,0,3.6498,3.6575,3.6635,3.6656,3.6704,3.6731,3.6752,3.6786,3.6813,3.685,3.6867,3.6908,3.6931,3.6961,3.6973,3.6952,3.7038,3.7011,3.7044,3.7043,3.7061,3.7059,3.7153,3.7078,3.7078,3.7078,3.7077,0,3.6579,3.663,3.6658,3.6695,3.6751,3.6766,3.6821,3.684,3.687,3.6908,3.6909,3.6944,3.6959,3.6995,3.7005,3.7056,3.7067,3.7073,3.7075,3.7072,3.7071,3.7084,3.7079,3.708,3.708,3.7079,3.7079,0,3.6643,3.6664,3.673,3.677,3.6781,3.6821,3.6854,3.6887,3.6903,3.6952,3.6963,3.6987,3.703,3.7046,3.7098,3.7104,3.7163,3.7162,3.7151,3.7151,3.7182,3.7178,3.7287,3.73,3.7218,3.7219,3.7219,0,3.6692,3.6732,3.6777,3.6803,3.6826,3.6869,3.6896,3.6911,3.6939,3.6981,3.7008,3.7052,3.7087,3.7155,3.7175,3.7214,3.7212,3.7247,3.7218,3.7213,3.7209,3.7206,3.7208,3.7252,3.7253,3.7254,3.7254,0,3.6776,3.6784,3.6825,3.6869,3.6902,3.6937,3.6971,3.6992,3.7011,3.7041,3.7086,3.7114,3.7166,3.7208,3.7247,3.7265,3.7262,3.7264,3.7273,3.7269,3.7261,3.7263,3.7164,3.7261,3.726,3.726,3.7259,3.7259,3.6833,3.6867,3.6903,3.6948,3.6975,3.7006,3.7039,3.7059,3.7097,3.7143,3.7148,3.7195,3.7226,3.7279,3.7299,3.7334,3.7324,3.7338,3.7341,3.7344,3.7345,3.7257,3.7342,3.7341,3.7341,3.7341,3.7341,0,3.6914,3.6937,3.6978,3.7026,3.706,3.7056,3.7092,3.712,3.7162,3.7193,3.7227,3.7277,3.7316,3.734,3.7379,3.7402,3.7401,3.7411,3.7408,3.7412,3.7353,3.734,3.7411,3.7411,3.7411,3.7411,3.7411,3.7411,3.6961,3.7017,3.7029,3.7098,3.712,3.7168,3.7188,3.7215,3.7239,3.7295,3.7329,3.7345,3.7371,3.7411,3.7446,3.7452,3.7465,3.7476,3.748,3.7424,3.7417,3.741,3.7397,3.7479,3.7479,3.7536,3.7536,3.7537]}]]